Home   Weather   Venice   Past weeks

Flag for Italy Past Weather in Venice, Italy — Yesterday and Last 2 Weeks

Now
70 °F

Passing clouds.


Feels Like: 70 °F
Forecast: 72 / 84 °F
Wind: 8 mph from North

Location: Venice / Tessera

Current Time: Jul 28, 2017 at 9:06:46 am

Latest Report: Jul 28, 2017 at 8:20 am


Visibility: N/A

Pressure: 29.86 "Hg

Humidity: 78%

Dew Point: 63 °F

Location of VeniceLocation

Past Weather in Venice — Graph

°F

Venice Temperature Yesterday

Maximum temperature yesterday: 81 °F (at 2:20 pm)
Minimum temperature yesterday: 61 °F (at 6:20 am)
Average temperature yesterday: 74 °F

High & Low Weather Summary for the Past Weeks

 TemperatureHumidityPressure
High88 °F (Jul 13, 1:50 pm)100% (Jul 21, 5:50 am)30.18 "Hg (Jul 21, 5:50 am)
Low61 °F (Jul 26, 1:50 am)29% (Jul 18, 5:50 pm)29.59 "Hg (Jul 24, 2:20 pm)
Average76 °F64%29.90 "Hg
* Reported Jul 13 7:20 am — Jul 28 7:50 am, Venice. Weather by CustomWeather, © 2017

Note: Actual official high and low records may vary slightly from our data, if they occured in-between our weather recording intervals... More about our weather records

Advertising

Venice Weather History for the Previous 24 Hours

Scroll right to see more
 ConditionsComfort  
Time TempWeatherWind HumidityBarometerVisibility
7:50 am
Fri, Jul 28
68 °FPassing clouds.8 mph83%29.86 "HgN/A
7:20 am68 °FPassing clouds.8 mph78%29.83 "HgN/A
6:50 am68 °FSunny.8 mph78%29.83 "Hg10 mi
6:20 am66 °FSunny.8 mph83%29.83 "Hg10 mi
5:50 am70 °FSunny.8 mph69%29.83 "Hg10 mi
5:20 am68 °FClear.8 mph78%29.83 "Hg10 mi
4:50 am70 °FClear.8 mph69%29.83 "Hg10 mi
4:20 am70 °FClear.8 mph69%29.83 "Hg10 mi
3:50 am72 °FClear.8 mph61%29.83 "Hg10 mi
3:20 am72 °FClear.5 mph61%29.83 "Hg10 mi
2:50 am72 °FClear.8 mph61%29.83 "Hg10 mi
2:20 am72 °FClear.8 mph65%29.83 "Hg10 mi
1:50 am72 °FClear.7 mph69%29.83 "Hg10 mi
1:20 am72 °FClear.7 mph73%29.83 "Hg10 mi
12:50 am72 °FPassing clouds.7 mph73%29.83 "HgN/A
12:20 am72 °FClear.2 mph78%29.83 "Hg10 mi
11:50 pm
Thu, Jul 27
72 °FPassing clouds.5 mph78%29.83 "HgN/A
11:20 pm77 °FClear.5 mph65%29.80 "Hg10 mi
10:50 pm75 °FClear.5 mph69%29.80 "Hg10 mi
10:20 pm77 °FPassing clouds.3 mph57%29.80 "HgN/A
9:50 pm77 °FClear.6 mph57%29.80 "Hg10 mi
9:20 pm77 °FClear.7 mph57%29.80 "Hg10 mi
8:20 pm79 °FSunny.8 mph51%29.77 "Hg10 mi
7:50 pm79 °FSunny.9 mph51%29.77 "Hg10 mi
7:20 pm79 °FSunny.9 mph48%29.77 "Hg10 mi
6:50 pm81 °FSunny.8 mph42%29.77 "Hg10 mi
6:20 pm81 °FPassing clouds.8 mph45%29.80 "HgN/A
5:50 pm81 °FPassing clouds.7 mph45%29.80 "HgN/A
5:20 pm81 °FSunny.9 mph45%29.77 "Hg10 mi
4:50 pm81 °FSunny.9 mph45%29.80 "Hg10 mi
4:20 pm81 °FSunny.9 mph48%29.80 "Hg10 mi
3:50 pm81 °FPassing clouds.9 mph48%29.80 "HgN/A
3:20 pm81 °FPassing clouds.9 mph45%29.80 "HgN/A
2:50 pm81 °FPassing clouds.8 mph48%29.80 "HgN/A
2:20 pm81 °FPassing clouds.7 mph45%29.80 "HgN/A
1:50 pm79 °FPassing clouds.8 mph45%29.80 "HgN/A
1:20 pm79 °FPassing clouds.7 mph45%29.83 "HgN/A
12:50 pm79 °FPassing clouds.5 mph45%29.83 "HgN/A
12:20 pm79 °FPassing clouds.6 mph42%29.83 "HgN/A
11:50 am77 °FPassing clouds.7 mph44%29.83 "HgN/A
11:20 am77 °FPassing clouds.6 mph51%29.83 "HgN/A
10:50 am75 °FPassing clouds.5 mph47%29.83 "HgN/A
10:20 am73 °FPassing clouds.7 mph53%29.83 "HgN/A
9:20 am72 °FPassing clouds.6 mph61%29.83 "HgN/A
Weather by CustomWeather, © 2017

See weather overviewHow to use our weather pages